K7FED Weather Reports


time (UTC)temp
F
wind
direction
speed
knots
gust
knots
rain 1hr
in
rain 24hr
in
rain mn
in
humidity
%
barometer
mb
20260902034200 66 0 1.7 5.2 0.00 0.00 0.00 59 1015.0
20260902033657 66 341 1.7 4.3 0.00 0.00 0.00 58 1014.9
20260902032657 66 312 1.7 6.1 0.00 0.00 0.00 58 1014.7
20260902032156 67 176 1.7 7.8 0.00 0.00 0.00 58 1014.6
20260902031701 67 319 2.6 7.8 0.00 0.00 0.00 58 1014.6
20260902031201 67 329 1.7 6.1 0.00 0.00 0.00 57 1014.5
20260902030658 67 314 1.7 7.0 0.00 0.00 0.00 57 1014.4
20260902030202 67 322 1.7 7.0 0.00 0.00 0.00 57 1014.4
20260902025657 67 319 1.7 6.1 0.00 0.00 0.00 57 1014.3
20260902025201 67 326 2.6 7.0 0.00 0.00 0.00 57 1014.3
20260902024158 68 3 2.6 7.0 0.00 0.00 0.00 55 1014.1
20260902023652 68 332 2.6 7.0 0.00 0.00 0.00 55 1014.1
20260902023151 68 96 1.7 7.0 0.00 0.00 0.00 54 1014.0
20260902022652 69 327 1.7 7.0 0.00 0.00 0.00 54 1014.0
20260902022147 69 328 2.6 7.0 0.00 0.00 0.00 54 1014.0
20260902021646 69 0 2.6 7.0 0.00 0.00 0.00 53 1013.9
20260902021147 69 273 2.6 7.8 0.00 0.00 0.00 53 1013.8
20260902020644 69 324 2.6 7.8 0.00 0.00 0.00 53 1013.8
20260902020144 70 299 2.6 5.2 0.00 0.00 0.00 52 1013.7
20260902015643 70 289 2.6 7.0 0.00 0.00 0.00 51 1013.7
20260902015147 70 326 2.6 7.0 0.00 0.00 0.00 50 1013.7
20260902014643 70 233 2.6 7.0 0.00 0.00 0.00 50 1013.6
20260902014143 71 295 1.7 6.1 0.00 0.00 0.00 50 1013.6
20260902013644 71 33 1.7 6.1 0.00 0.00 0.00 49 1013.6
20260902013144 71 322 1.7 6.1 0.00 0.00 0.00 50 1013.6
20260902012643 71 353 2.6 7.8 0.00 0.00 0.00 50 1013.6
20260902012141 71 312 2.6 7.8 0.00 0.00 0.00 50 1013.6
20260902011641 72 308 2.6 7.0 0.00 0.00 0.00 49 1013.5
20260902011138 72 320 2.6 7.0 0.00 0.00 0.00 49 1013.6
20260902010637 72 350 2.6 7.0 0.00 0.00 0.00 49 1013.6
20260902010139 72 10 3.5 8.7 0.00 0.00 0.00 48 1013.5
20260902005135 73 322 2.6 7.0 0.00 0.00 0.00 47 1013.4
20260902004635 73 338 2.6 9.6 0.00 0.00 0.00 46 1013.4
20260902004139 74 347 2.6 9.6 0.00 0.00 0.00 45 1013.4
20260902003635 74 117 2.6 7.8 0.00 0.00 0.00 45 1013.3
20260902003139 74 330 2.6 7.8 0.00 0.00 0.00 45 1013.4
20260902002635 74 326 2.6 7.8 0.00 0.00 0.00 45 1013.3
20260902002135 75 297 2.6 7.8 0.00 0.00 0.00 45 1013.4
20260902001635 75 211 2.6 7.0 0.00 0.00 0.00 44 1013.2
20260902001135 75 307 2.6 7.8 0.00 0.00 0.00 44 1013.2
20260902000636 75 186 1.7 7.8 0.00 0.00 0.00 44 1013.1
20260902000136 75 342 2.6 7.0 0.00 0.00 0.00 43 1013.1
20260901235635 75 287 3.5 8.7 0.00 0.00 0.00 45 1013.2
20260901235132 75 308 3.5 8.7 0.00 0.00 0.00 45 1013.1
20260901234633 76 316 3.5 7.8 0.00 0.00 0.00 44 1013.2
20260901234137 76 321 2.6 7.8 0.00 0.00 0.00 44 1013.1
20260901233634 76 335 2.6 7.0 0.00 0.00 0.00 44 1013.2
20260901233133 76 306 3.5 9.6 0.00 0.00 0.00 43 1013.2
20260901232133 77 317 1.7 5.2 0.00 0.00 0.00 41 1013.3
20260901231633 77 226 0.9 5.2 0.00 0.00 0.00 41 1013.3
20260901231133 76 300 1.7 6.1 0.00 0.00 0.00 42 1013.3
20260901230633 76 0 1.7 7.8 0.00 0.00 0.00 41 1013.3
20260901230133 76 355 2.6 7.8 0.00 0.00 0.00 42 1013.3
20260901225633 76 319 1.7 6.1 0.00 0.00 0.00 43 1013.4
20260901225134 76 160 1.7 5.2 0.00 0.00 0.00 41 1013.5
20260901224633 76 319 1.7 5.2 0.00 0.00 0.00 42 1013.5
20260901224133 76 315 1.7 5.2 0.00 0.00 0.00 41 1013.5
20260901222633 76 319 2.6 7.0 0.00 0.00 0.00 43 1013.6
20260901222134 75 344 2.6 7.0 0.00 0.00 0.00 43 1013.7
20260901221633 75 186 3.5 8.7 0.00 0.00 0.00 44 1013.8
20260901221130 75 15 2.6 8.7 0.00 0.00 0.00 45 1013.8
20260901220634 75 2 1.7 6.1 0.00 0.00 0.00 45 1013.9
20260901220131 74 139 1.7 7.0 0.00 0.00 0.00 45 1014.0
20260901215633 75 340 1.7 7.0 0.00 0.00 0.00 44 1014.0
20260901215135 75 320 0.9 3.5 0.00 0.00 0.00 44 1014.0
20260901214631 74 305 1.7 7.8 0.00 0.00 0.00 43 1014.0
20260901214131 74 216 2.6 7.8 0.00 0.00 0.00 44 1013.9
20260901213632 75 337 1.7 7.0 0.00 0.00 0.00 44 1013.9
20260901213134 75 7 1.7 7.0 0.00 0.00 0.00 44 1013.9
20260901212631 75 312 1.7 7.0 0.00 0.00 0.00 44 1014.0
20260901212132 75 204 1.7 5.2 0.00 0.00 0.00 44 1013.9
20260901211132 75 199 1.7 4.3 0.00 0.00 0.00 42 1013.9
20260901210131 75 161 0.9 4.3 0.00 0.00 0.00 42 1014.0
20260901205631 75 0 0.9 4.3 0.00 0.00 0.00 42 1014.0
20260901205129 74 248 0.9 4.3 0.00 0.00 0.00 42 1014.1
20260901204626 74 252 1.7 6.1 0.00 0.00 0.00 44 1014.1
20260901204126 73 303 1.7 6.1 0.00 0.00 0.00 43 1014.2
20260901203626 73 322 2.6 6.1 0.00 0.00 0.00 45 1014.2
20260901203126 74 316 2.6 6.1 0.00 0.00 0.00 44 1014.3
20260901202625 74 325 1.7 6.1 0.00 0.00 0.00 43 1014.3
20260901202129 74 330 1.7 4.3 0.00 0.00 0.00 42 1014.4
20260901201626 73 0 1.7 4.3 0.00 0.00 0.00 46 1014.5
20260901201124 74 89 1.7 7.0 0.00 0.00 0.00 44 1014.4
20260901200623 74 341 1.7 7.0 0.00 0.00 0.00 43 1014.5
20260901200123 74 162 1.7 5.2 0.00 0.00 0.00 45 1014.5
20260901195124 73 296 1.7 5.2 0.00 0.00 0.00 45 1014.6
20260901193621 74 172 1.7 6.1 0.00 0.00 0.00 45 1014.7
20260901193122 74 322 2.6 6.1 0.00 0.00 0.00 44 1014.8
20260901192622 73 349 1.7 6.1 0.00 0.00 0.00 46 1014.8
20260901192122 73 307 1.7 4.3 0.00 0.00 0.00 46 1014.9
20260901191622 73 315 0.9 3.5 0.00 0.00 0.00 46 1014.9
20260901191122 72 311 0.9 4.3 0.00 0.00 0.00 45 1015.0
20260901190623 72 334 1.7 4.3 0.00 0.00 0.00 44 1015.0
20260901190124 72 19 2.6 5.2 0.00 0.00 0.00 45 1015.1
20260901185614 72 22 2.6 5.2 0.00 0.00 0.00 45 1015.1
20260901185110 72 177 1.7 3.5 0.00 0.00 0.00 45 1015.1
20260901184555 72 315 1.7 4.3 0.00 0.00 0.00 45 1015.1
20260901184045 72 30 1.7 6.1 0.00 0.00 0.00 45 1015.1
20260901183543 72 315 1.7 6.1 0.00 0.00 0.00 45 1015.1
20260901183042 72 137 2.6 5.2 0.00 0.00 0.00 46 1015.1
20260901182543 72 144 1.7 5.2 0.00 0.00 0.00 45 1015.1
20260901182039 72 0 2.6 7.8 0.00 0.00 0.00 45 1015.1
20260901181524 71 169 2.6 7.8 0.00 0.00 0.00 47 1015.1
20260901181023 71 319 1.7 5.2 0.00 0.00 0.00 47 1015.0
20260901180524 71 324 1.7 5.2 0.00 0.00 0.00 48 1015.1
20260901180024 70 347 1.7 3.5 0.00 0.00 0.00 49 1015.1
20260901175524 70 309 0.9 3.5 0.00 0.00 0.00 49 1015.1
20260901175028 70 0 1.7 3.5 0.00 0.00 0.00 53 1015.1
20260901174528 70 28 1.7 3.5 0.00 0.00 0.00 52 1015.1
20260901173528 70 213 1.7 3.5 0.00 0.00 0.00 53 1015.0
20260901173023 70 194 0.9 2.6 0.00 0.00 0.00 48 1015.0
20260901172523 69 167 0.9 2.6 0.00 0.00 0.00 50 1014.9
20260901172023 69 148 0.9 2.6 0.00 0.00 0.00 50 1014.9
20260901171522 68 329 0.9 5.2 0.00 0.00 0.00 52 1015.0
20260901171023 68 357 1.7 5.2 0.00 0.00 0.00 52 1015.0
20260901170525 67 319 1.7 4.3 0.00 0.00 0.00 52 1015.0
20260901170027 67 326 1.7 3.5 0.00 0.00 0.00 54 1015.0
20260901165524 66 341 1.7 3.5 0.00 0.00 0.00 59 1015.0
20260901165025 66 98 1.7 3.5 0.00 0.00 0.00 61 1015.1
20260901164025 66 94 1.7 2.6 0.00 0.00 0.00 63 1015.0
20260901163523 65 27 2.6 5.2 0.00 0.00 0.00 64 1015.0
20260901163017 65 77 3.5 7.0 0.00 0.00 0.00 63 1015.0
20260901162513 64 116 3.5 7.0 0.00 0.00 0.00 64 1015.0
20260901162016 64 89 2.6 4.3 0.00 0.00 0.00 65 1014.9
20260901161010 64 65 2.6 4.3 0.00 0.00 0.00 66 1014.8
20260901160511 63 102 2.6 4.3 0.00 0.00 0.00 67 1014.8
20260901160010 63 81 2.6 3.5 0.00 0.00 0.00 68 1014.7
20260901155510 63 84 2.6 3.5 0.00 0.00 0.00 68 1014.7
20260901155011 62 114 2.6 4.3 0.00 0.00 0.00 68 1014.6
20260901154511 62 83 2.6 5.2 0.00 0.00 0.00 68 1014.6
20260901154001 62 138 2.6 5.2 0.00 0.00 0.00 68 1014.6
20260901153502 62 133 3.5 5.2 0.00 0.00 0.00 70 1014.6
20260901153005 61 152 3.5 5.2 0.00 0.00 0.00 70 1014.5
20260901152457 61 123 3.5 5.2 0.00 0.00 0.00 71 1014.5
20260901151957 61 122 2.6 5.2 0.00 0.00 0.00 71 1014.5
20260901151457 60 124 2.6 5.2 0.00 0.00 0.00 71 1014.5
20260901150949 60 112 2.6 5.2 0.00 0.00 0.00 71 1014.4
20260901145944 59 115 2.6 4.3 0.00 0.00 0.00 73 1014.3
20260901145441 59 140 2.6 4.3 0.00 0.00 0.00 73 1014.2
20260901144941 58 133 2.6 5.2 0.00 0.00 0.00 74 1014.1
20260901144436 58 69 2.6 5.2 0.00 0.00 0.00 74 1014.1
20260901143932 58 108 2.6 5.2 0.00 0.00 0.00 72 1014.0
20260901143427 58 133 2.6 5.2 0.00 0.00 0.00 70 1014.0
20260901142927 57 127 2.6 4.3 0.00 0.00 0.00 70 1014.0
20260901141927 57 112 1.7 3.5 0.00 0.00 0.00 73 1013.8
20260901141426 57 103 1.7 3.5 0.00 0.00 0.00 74 1013.7
20260901140927 57 118 2.6 4.3 0.00 0.00 0.00 74 1013.6
20260901140428 58 100 2.6 4.3 0.00 0.00 0.00 74 1013.6
20260901135934 58 123 1.7 4.3 0.00 0.00 0.00 73 1013.5
20260901135425 59 128 1.7 3.5 0.00 0.00 0.00 72 1013.4
20260901134928 59 79 1.7 3.5 0.00 0.00 0.00 71 1013.3
20260901134429 59 113 0.9 3.5 0.00 0.00 0.00 70 1013.2
20260901133925 59 82 0.9 2.6 0.00 0.00 0.00 70 1013.2
20260901133425 59 0 0.0 2.6 0.00 0.00 0.00 71 1013.1
20260901132925 58 7 0.0 2.6 0.00 0.00 0.00 71 1013.0
20260901132425 58 2 0.9 2.6 0.00 0.00 0.00 71 1013.0
20260901131925 58 341 0.9 2.6 0.00 0.00 0.00 72 1012.9
20260901131426 58 336 0.0 1.7 0.00 0.00 0.00 74 1013.0
20260901130925 58 32 0.0 1.7 0.00 0.00 0.00 75 1012.9
20260901130425 58 21 0.0 1.7 0.00 0.00 0.00 75 1012.9
20260901125929 58 140 0.0 1.7 0.00 0.00 0.00 73 1012.9
20260901125426 58 0 0.0 1.7 0.00 0.00 0.00 71 1012.9
20260901124925 58 0 0.0 1.7 0.00 0.00 0.00 71 1012.9
20260901124429 59 0 0.0 0.9 0.00 0.00 0.00 70 1012.9
20260901123926 59 0 0.0 0.9 0.00 0.00 0.00 70 1012.8
20260901123424 59 0 0.0 0.9 0.00 0.00 0.00 70 1012.9
20260901122924 59 0 0.0 2.6 0.00 0.00 0.00 70 1012.9
20260901122428 59 0 0.0 2.6 0.00 0.00 0.00 69 1012.7
20260901121925 59 0 0.0 2.6 0.00 0.00 0.00 69 1012.8
20260901121425 59 0 0.0 1.7 0.00 0.00 0.00 69 1012.8
20260901120924 59 0 0.0 1.7 0.00 0.00 0.00 69 1012.8
20260901120425 59 0 0.0 1.7 0.00 0.00 0.00 70 1012.9
20260901115425 59 0 0.9 2.6 0.00 0.00 0.00 70 1012.9
20260901114923 59 327 0.0 2.6 0.00 0.00 0.00 71 1012.9
20260901113923 58 328 0.0 1.7 0.00 0.00 0.00 72 1012.8
20260901113423 58 348 0.0 1.7 0.00 0.00 0.00 73 1012.8
20260901112920 57 0 0.0 1.7 0.00 0.00 0.00 74 1012.7
20260901112420 57 0 0.0 1.7 0.00 0.00 0.00 75 1012.5
20260901111920 57 271 0.0 2.6 0.00 0.00 0.00 77 1012.5
20260901111420 57 0 0.0 2.6 0.00 0.00 0.00 77 1012.4
20260901110920 57 0 0.0 2.6 0.00 0.00 0.00 79 1012.4
20260901110417 57 101 0.0 1.7 0.00 0.00 0.00 79 1012.4
20260901105917 57 23 0.0 1.7 0.00 0.00 0.00 79 1012.5
20260901105417 57 0 0.9 1.7 0.00 0.00 0.00 79 1012.4
20260901104918 57 309 0.0 1.7 0.00 0.00 0.00 80 1012.5
20260901104417 57 0 0.0 1.7 0.00 0.00 0.00 79 1012.5
20260901103920 58 0 0.0 1.7 0.00 0.00 0.00 79 1012.4
20260901103421 58 0 0.0 0.9 0.00 0.00 0.00 77 1012.4
20260901102917 58 0 0.0 0.9 0.00 0.00 0.00 76 1012.4
20260901102417 58 0 0.0 1.7 0.00 0.00 0.00 77 1012.3
20260901101921 59 0 0.9 1.7 0.00 0.00 0.00 77 1012.3
20260901101418 59 94 0.9 2.6 0.00 0.00 0.00 77 1012.2
20260901100921 59 70 1.7 2.6 0.00 0.00 0.00 77 1012.2
20260901100418 59 76 1.7 3.5 0.00 0.00 0.00 77 1012.1
20260901095915 59 64 1.7 3.5 0.00 0.00 0.00 77 1012.1
20260901095415 59 64 0.9 1.7 0.00 0.00 0.00 76 1012.2
20260901094915 59 31 1.7 3.5 0.00 0.00 0.00 77 1012.2
20260901094422 59 62 2.6 3.5 0.00 0.00 0.00 76 1012.1
20260901093915 59 89 2.6 3.5 0.00 0.00 0.00 75 1012.1
20260901093415 60 96 1.7 2.6 0.00 0.00 0.00 73 1012.1
20260901092916 60 103 0.9 2.6 0.00 0.00 0.00 69 1012.0
20260901092416 61 18 0.9 2.6 0.00 0.00 0.00 68 1011.9
20260901091915 61 0 0.9 3.5 0.00 0.00 0.00 67 1011.9
20260901091415 60 124 0.9 3.5 0.00 0.00 0.00 67 1011.8
20260901090919 60 112 0.9 2.6 0.00 0.00 0.00 68 1011.9
20260901090415 60 141 0.0 2.6 0.00 0.00 0.00 69 1011.9
20260901085915 60 356 0.0 2.6 0.00 0.00 0.00 69 1011.9
20260901085415 60 149 0.0 1.7 0.00 0.00 0.00 71 1011.9
20260901084915 61 0 0.0 0.9 0.00 0.00 0.00 69 1012.0
20260901084415 61 0 0.0 1.7 0.00 0.00 0.00 68 1012.1
20260901083919 61 0 0.0 1.7 0.00 0.00 0.00 67 1012.0
20260901083415 61 0 0.0 4.3 0.00 0.00 0.00 68 1012.0
20260901082912 61 133 0.9 4.3 0.00 0.00 0.00 67 1011.9
20260901082412 61 231 0.9 3.5 0.00 0.00 0.00 67 1012.0
20260901081413 61 198 0.0 2.6 0.00 0.00 0.00 69 1012.0
20260901080910 61 202 0.0 1.7 0.00 0.00 0.00 69 1011.9
20260901080410 61 303 0.0 1.7 0.00 0.00 0.00 69 1012.0
20260901075909 61 0 0.9 3.5 0.00 0.00 0.00 69 1011.9
20260901075410 61 311 0.9 3.5 0.00 0.00 0.00 70 1011.9
20260901074910 61 15 0.9 3.5 0.00 0.00 0.00 70 1011.8
20260901074410 61 342 0.9 3.5 0.00 0.00 0.00 69 1011.9
20260901073911 61 348 1.7 5.2 0.00 0.00 0.00 69 1011.9
20260901073414 62 336 1.7 7.8 0.00 0.00 0.00 69 1011.9
20260901072914 62 206 2.6 7.8 0.00 0.00 0.00 70 1011.9
20260901072411 62 353 2.6 6.1 0.00 0.00 0.00 70 1011.7
20260901071911 61 164 2.6 5.2 0.00 0.00 0.00 70 1011.8
20260901071410 61 336 1.7 5.2 0.00 0.00 0.00 71 1011.8
20260901070408 62 336 2.6 7.0 0.00 0.00 0.00 71 1011.7
20260901065908 62 347 2.6 7.0 0.00 0.00 0.00 71 1011.8
20260901065408 62 311 2.6 7.0 0.00 0.00 0.00 71 1011.7
20260901064905 62 303 2.6 7.0 0.00 0.00 0.00 70 1011.8
20260901064406 62 299 2.6 7.8 0.00 0.00 0.00 70 1011.8
20260901063905 62 286 2.6 7.8 0.00 0.00 0.00 70 1011.8
20260901063404 62 292 2.6 7.8 0.00 0.00 0.00 70 1011.8
20260901062905 62 3 2.6 7.8 0.00 0.00 0.00 70 1011.9
20260901062408 62 330 2.6 7.8 0.00 0.00 0.00 70 1011.9
20260901061905 62 213 2.6 7.8 0.00 0.00 0.00 70 1011.8
20260901061405 62 318 2.6 6.1 0.00 0.00 0.00 70 1011.8
20260901060905 62 14 3.5 7.8 0.00 0.00 0.00 70 1011.7
20260901060406 62 314 3.5 7.8 0.00 0.00 0.00 71 1011.7
20260901055912 62 235 3.5 8.7 0.00 0.00 0.00 71 1011.7
20260901054909 62 321 2.6 8.7 0.00 0.00 0.00 70 1011.7
20260901054403 62 327 2.6 8.7 0.00 0.00 0.00 70 1011.6
20260901053903 62 295 2.6 6.1 0.00 0.00 0.00 70 1011.6
20260901053403 62 150 2.6 6.1 0.00 0.00 0.00 70 1011.6
20260901052903 62 324 2.6 7.8 0.00 0.00 0.00 70 1011.6
20260901052403 62 341 2.6 7.8 0.00 0.00 0.00 70 1011.6
20260901051903 62 9 2.6 7.8 0.00 0.00 0.00 70 1011.5
20260901051404 62 354 2.6 7.8 0.00 0.00 0.00 70 1011.4
20260901050904 63 339 2.6 6.1 0.00 0.00 0.00 69 1011.4
20260901050405 63 299 2.6 7.0 0.00 0.00 0.00 69 1011.4
20260901045908 63 329 2.6 7.0 0.00 0.00 0.00 69 1011.4
20260901044905 63 294 3.5 8.7 0.00 0.00 0.00 68 1011.3
20260901044408 63 156 3.5 7.8 0.00 0.00 0.00 68 1011.3
20260901043904 63 175 2.6 7.8 0.00 0.00 0.00 69 1011.3
20260901043405 63 320 3.5 7.8 0.00 0.00 0.00 68 1011.4
20260901042905 63 358 3.5 7.8 0.00 0.00 0.00 68 1011.3
20260901042409 63 5 2.6 7.8 0.00 0.00 0.00 68 1011.2
20260901041406 63 306 1.7 7.0 0.00 0.00 0.00 68 1011.2
20260901040859 64 314 2.6 7.8 0.00 0.00 0.00 68 1011.1
20260901040358 64 326 2.6 7.8 0.00 0.00 0.00 68 1011.1
20260901035901 64 352 2.6 7.8 0.00 0.00 0.00 68 1011.1
20260901035405 64 337 2.6 6.1 0.00 0.00 0.00 67 1011.0
20260901034858 64 339 2.6 6.1 0.00 0.00 0.00 66 1010.9